This is the latest recevied weather packets stored in our database for station/object KQ4DLB-13. If no packets are shown the sender has not sent any weather packets the latest 1 day(s).
| Time | Temp. | Humidity | Pressure | Rain* | Wind** | Luminosity | Snow |
|---|---|---|---|---|---|---|---|
| 1777968902 | 14.44° C | 75% | 984.3 hPa | 0 mm | 1.79 m/s, 189° | - | - |
| 1777968602 | 14.44° C | 74% | 984.2 hPa | 0 mm | 1.79 m/s, 181° | - | - |
| 1777968302 | 14.44° C | 73% | 984.1 hPa | 0 mm | 1.79 m/s, 182° | - | - |
| 1777968002 | 14.44° C | 73% | 984.2 hPa | 0 mm | 1.34 m/s, 187° | - | - |
| 1777967702 | 15° C | 73% | 984.4 hPa | 0 mm | 1.79 m/s, 179° | - | - |
| 1777967402 | 15° C | 72% | 984.4 hPa | 0 mm | 1.79 m/s, 172° | - | - |
| 1777967102 | 15.56° C | 71% | 984.4 hPa | 0 mm | 2.24 m/s, 167° | - | - |
| 1777966802 | 15.56° C | 70% | 984.3 hPa | 0 mm | 2.24 m/s, 193° | - | - |
| 1777966502 | 15.56° C | 70% | 984.4 hPa | 0 mm | 1.79 m/s, 185° | - | - |
| 1777966202 | 15.56° C | 70% | 984.5 hPa | 0 mm | 1.79 m/s, 179° | - | - |
| 1777965902 | 15.56° C | 69% | 984.6 hPa | 0 mm | 1.79 m/s, 43° | - | - |
| 1777965602 | 15.56° C | 70% | 984.6 hPa | 0 mm | 1.34 m/s, 188° | - | - |
| 1777965302 | 15° C | 70% | 984.6 hPa | 0 mm | 2.24 m/s, 167° | - | - |
| 1777965001 | 15° C | 72% | 984.6 hPa | 0 mm | 2.24 m/s, 185° | - | - |
| 1777964702 | 15° C | 72% | 984.6 hPa | 0 mm | 2.24 m/s, 173° | - | - |
| 1777964402 | 15.56° C | 71% | 984.8 hPa | 0 mm | 1.79 m/s, 154° | - | - |
| 1777964102 | 15.56° C | 70% | 984.8 hPa | 0 mm | 2.24 m/s, 170° | - | - |
| 1777963802 | 15° C | 71% | 984.8 hPa | 0 mm | 1.79 m/s, 190° | - | - |
| 1777963502 | 15° C | 71% | 984.9 hPa | 0 mm | 2.24 m/s, 159° | - | - |
| 1777963202 | 15° C | 71% | 984.9 hPa | 0 mm | 1.79 m/s, 171° | - | - |
| 1777962902 | 15° C | 70% | 985 hPa | 0 mm | 1.79 m/s, 166° | - | - |
| 1777962602 | 15° C | 71% | 985.1 hPa | 0 mm | 2.24 m/s, 165° | - | - |
| 1777962302 | 15.56° C | 71% | 985.1 hPa | 0 mm | 2.24 m/s, 167° | - | - |
| 1777962002 | 15.56° C | 69% | 985.2 hPa | 0 mm | 1.79 m/s, 180° | - | - |
| 1777961702 | 15.56° C | 70% | 985.3 hPa | 0 mm | 1.79 m/s, 194° | - | - |
* Rain latest hour (hover to see other rain measurements)
** Current wind speed in m/s (hover to see current wind gust speed)